Location: Canet
(43.3261°N, 5.3723°E)
Time: 19:01:03
(UTC+00:00)

Okean O Rocket - Pass Details

Date: 24 January 2021
Orbit: 622 x 645 km, 98.2° (Epoch: 07 March)

Event Time Altitude Azimuth Distance (km) Brightness Sun altitude
Rises 17:58:27 0° 191° (S) 2,939 5.4 -14.3°
Reaches altitude 10° 18:00:52 10° 202° (SSW) 2,032 4.7 -14.7°
Maximum altitude 18:04:46 30° 264° (W) 1,154 3.7 -15.4°
Drops below altitude 10° 18:08:41 10° 325° (NW) 2,037 4.5 -16.1°
Sets 18:11:07 0° 337° (NNW) 2,947 5.2 -16.5°
